2015-08-18, 07:00:04,VALID,918.882,VALID,0,VALID,100.728,VALID,87.1348,VALID,19.1597,VALID,147,VALID,0.421484,
2015-08-18, 07:06:04,VALID,918.907,VALID,0,VALID,100.667,VALID,100.995,VALID,19.3728,VALID,147,VALID,0,
2015-08-18, 07:07:04,VALID,918.903,VALID,0,VALID,100.667,VALID,102.714,VALID,19.4118,VALID,148,VALID,0,
2015-08-18, 07:08:04,VALID,918.89,VALID,0,VALID,100.629,VALID,107.226,VALID,19.4703,VALID,148,VALID,0,
2015-08-18, 07:09:04,VALID,918.894,VALID,0,VALID,100.621,VALID,111.524,VALID,19.5078,VALID,148,VALID,0,
2015-08-18, 07:10:04,VALID,918.9,VALID,0,VALID,100.606,VALID,123.45,VALID,19.5093,VALID,157,VALID,1.1168,
2015-08-18, 07:11:04,VALID,918.911,VALID,0,VALID,100.538,VALID,137.74,VALID,19.5483,VALID,165,VALID,0.900781,
2015-08-18, 07:12:04,VALID,918.924,VALID,0,VALID,100.477,VALID,111.631,VALID,19.5873,VALID,163,VALID,1.10234,
2015-08-18, 07:13:04,VALID,918.932,VALID,0,VALID,100.423,VALID,107.334,VALID,19.6053,VALID,171,VALID,0.795313,
2015-08-18, 07:14:04,VALID,918.943,VALID,0,VALID,100.362,VALID,106.044,VALID,19.6458,VALID,156,VALID,0.681641,
2015-08-18, 07:15:04,VALID,918.928,VALID,0,VALID,100.294,VALID,107.656,VALID,19.6458,VALID,169,VALID,0.893359,
2015-08-18, 07:16:04,VALID,918.957,VALID,0,VALID,100.21,VALID,133.12,VALID,19.6458,VALID,158,VALID,0.973437,
2015-08-18, 07:17:04,VALID,918.907,VALID,0,VALID,100.141,VALID,148.591,VALID,19.6848,VALID,152,VALID,0.737109,
2015-08-18, 07:18:04,VALID,918.936,VALID,0,VALID,100.095,VALID,153.748,VALID,19.6833,VALID,150,VALID,0.967969,
2015-08-18, 07:19:04,VALID,918.921,VALID,0,VALID,100.034,VALID,158.691,VALID,19.7433,VALID,180,VALID,1.05977,
2015-08-18, 07:20:04,VALID,918.91,VALID,0,VALID,99.9811,VALID,157.079,VALID,19.7823,VALID,158,VALID,0.798828,
2015-08-18, 07:21:04,VALID,918.906,VALID,0,VALID,99.9354,VALID,157.724,VALID,19.8603,VALID,141,VALID,0.387109,
2015-08-18, 07:22:04,VALID,918.932,VALID,0,VALID,99.8515,VALID,159.55,VALID,19.8993,VALID,140,VALID,0.759766,
2015-08-18, 07:23:04,VALID,918.956,VALID,0,VALID,99.6457,VALID,162.666,VALID,19.8993,VALID,148,VALID,1.40352,
2015-08-18, 07:24:04,VALID,918.964,VALID,0,VALID,99.4017,VALID,165.782,VALID,19.9188,VALID,152,VALID,1.52305,
2015-08-18, 07:25:04,VALID,918.976,VALID,0,VALID,99.2416,VALID,169.864,VALID,19.9173,VALID,142,VALID,1.50117,
2015-08-18, 07:26:04,VALID,919.004,VALID,0,VALID,99.0968,VALID,172.765,VALID,19.9563,VALID,143,VALID,1.32461,
2015-08-18, 07:27:04,VALID,919.062,VALID,0,VALID,98.9443,VALID,177.6,VALID,19.9773,VALID,153,VALID,0.833594,
2015-08-18, 07:28:04,VALID,919.009,VALID,0,VALID,98.8757,VALID,179.964,VALID,19.9953,VALID,161,VALID,0.362891,
2015-08-18, 07:29:04,VALID,919.042,VALID,0,VALID,98.8757,VALID,183.295,VALID,19.9953,VALID,138,VALID,1.25937,
2015-08-18, 07:30:04,VALID,919.059,VALID,0,VALID,98.6622,VALID,185.336,VALID,19.9968,VALID,159,VALID,1.37422,
2015-08-18, 07:31:04,VALID,919.081,VALID,0,VALID,98.6622,VALID,191.03,VALID,20.0343,VALID,162,VALID,0.04375,
2015-08-18, 07:32:04,VALID,919.111,VALID,0,VALID,98.647,VALID,195.973,VALID,20.0733,VALID,147,VALID,1.22539,
2015-08-18, 07:33:04,VALID,919.113,VALID,0,VALID,98.5555,VALID,201.452,VALID,20.0928,VALID,141,VALID,1.37422,
2015-08-18, 07:34:04,VALID,919.142,VALID,0,VALID,98.6622,VALID,206.394,VALID,20.1318,VALID,136,VALID,1.60195,
2015-08-18, 07:35:04,VALID,919.132,VALID,0,VALID,98.586,VALID,205.642,VALID,20.1513,VALID,152,VALID,1.48555,
2015-08-18, 07:36:04,VALID,919.153,VALID,0,VALID,98.2963,VALID,205.32,VALID,20.1513,VALID,137,VALID,1.6332,
2015-08-18, 07:37:04,VALID,919.161,VALID,0,VALID,98.1591,VALID,208.006,VALID,20.1708,VALID,142,VALID,0.822656,
2015-08-18, 07:38:04,VALID,919.149,VALID,0,VALID,98.2887,VALID,212.196,VALID,20.2684,VALID,125,VALID,1.43398,
2015-08-18, 07:39:04,VALID,919.158,VALID,0,VALID,98.0905,VALID,214.99,VALID,20.3448,VALID,134,VALID,1.09727,
2015-08-18, 07:40:04,VALID,919.18,VALID,0,VALID,97.8542,VALID,215.205,VALID,20.4033,VALID,130,VALID,0.591797,
2015-08-18, 07:41:04,VALID,919.171,VALID,0,VALID,97.6102,VALID,215.097,VALID,20.5009,VALID,139,VALID,0,
2015-08-18, 07:42:04,VALID,919.184,VALID,0,VALID,96.9012,VALID,216.064,VALID,20.5219,VALID,137,VALID,0,
2015-08-18, 07:43:04,VALID,919.172,VALID,0,VALID,96.9394,VALID,213.486,VALID,20.5609,VALID,120,VALID,1.28086,
2015-08-18, 07:44:04,VALID,919.189,VALID,0,VALID,96.9775,VALID,206.824,VALID,20.6194,VALID,142,VALID,0.2625,
2015-08-18, 07:45:04,VALID,919.166,VALID,0,VALID,96.2685,VALID,191.782,VALID,20.5984,VALID,149,VALID,0,
2015-08-18, 07:46:04,VALID,919.176,VALID,0,VALID,96.055,VALID,198.336,VALID,20.5594,VALID,149,VALID,0,
2015-08-18, 07:47:04,VALID,919.188,VALID,0,VALID,96.3371,VALID,210.8,VALID,20.5984,VALID,154,VALID,0.478516,
2015-08-18, 07:48:04,VALID,919.211,VALID,0,VALID,96.3676,VALID,222.296,VALID,20.6374,VALID,149,VALID,0,
2015-08-18, 07:49:04,VALID,919.252,VALID,0,VALID,96.3524,VALID,231.536,VALID,20.6959,VALID,161,VALID,0,
2015-08-18, 07:50:04,VALID,919.237,VALID,0,VALID,95.6205,VALID,239.701,VALID,20.7333,VALID,165,VALID,0,
2015-08-18, 07:51:04,VALID,919.251,VALID,0,VALID,95.712,VALID,248.726,VALID,20.834,VALID,160,VALID,0,
2015-08-18, 07:52:04,VALID,919.25,VALID,0,VALID,96.0169,VALID,258.611,VALID,20.9511,VALID,166,VALID,0,
2015-08-18, 07:53:04,VALID,919.273,VALID,0,VALID,95.8645,VALID,270,VALID,21.047,VALID,155,VALID,0,
2015-08-18, 07:54:04,VALID,919.278,VALID,0,VALID,95.5824,VALID,272.041,VALID,21.2031,VALID,133,VALID,0,
2015-08-18, 07:55:04,VALID,919.277,VALID,0,VALID,94.9954,VALID,281.711,VALID,21.3412,VALID,130,VALID,0,
2015-08-18, 07:56:04,VALID,919.276,VALID,0,VALID,90.2308,VALID,288.694,VALID,21.3396,VALID,108,VALID,0.666797,
2015-08-18, 07:57:04,VALID,919.305,VALID,0,VALID,90.5967,VALID,290.736,VALID,21.3803,VALID,91,VALID,0,
2015-08-18, 07:58:04,VALID,919.31,VALID,0,VALID,90.5052,VALID,292.24,VALID,21.4957,VALID,80,VALID,0.00234375,
2015-08-18, 07:59:04,VALID,919.259,VALID,0,VALID,88.6527,VALID,292.24,VALID,21.5347,VALID,66,VALID,0,
2015-08-18, 08:00:04,VALID,919.311,VALID,0,VALID,89.0339,VALID,294.174,VALID,21.6128,VALID,99,VALID,0,
2015-08-18, 08:01:04,VALID,919.301,VALID,0,VALID,89.7352,VALID,298.149,VALID,21.7688,VALID,106,VALID,0,
2015-08-18, 08:02:04,VALID,919.351,VALID,0,VALID,85.4661,VALID,300.513,VALID,21.7493,VALID,154,VALID,0,
2015-08-18, 08:03:04,VALID,919.361,VALID,0,VALID,86.5182,VALID,303.521,VALID,21.7298,VALID,168,VALID,0,
2015-08-18, 08:04:04,VALID,919.363,VALID,0,VALID,86.8841,VALID,300.728,VALID,21.8469,VALID,112,VALID,0,
2015-08-18, 08:05:04,VALID,919.345,VALID,0,VALID,87.0823,VALID,306.959,VALID,21.9249,VALID,175,VALID,0,
2015-08-18, 08:06:04,VALID,919.369,VALID,0,VALID,85.2832,VALID,309.108,VALID,22.0225,VALID,131,VALID,0,
2015-08-18, 08:07:04,VALID,919.366,VALID,0,VALID,85.2908,VALID,310.72,VALID,22.003,VALID,166,VALID,0,
2015-08-18, 08:08:04,VALID,919.362,VALID,0,VALID,84.9249,VALID,313.191,VALID,22.0208,VALID,157,VALID,0,
2015-08-18, 08:09:04,VALID,919.357,VALID,0,VALID,84.719,VALID,315.017,VALID,22.042,VALID,165,VALID,0,
2015-08-18, 08:10:04,VALID,919.381,VALID,0,VALID,84.9858,VALID,313.621,VALID,22.0598,VALID,152,VALID,0,
2015-08-18, 08:11:04,VALID,919.357,VALID,0,VALID,85.3823,VALID,312.439,VALID,22.0208,VALID,117,VALID,0,
2015-08-18, 08:12:04,VALID,919.357,VALID,0,VALID,84.6733,VALID,310.075,VALID,22.0208,VALID,152,VALID,0,
2015-08-18, 08:13:04,VALID,919.36,VALID,0,VALID,85.3518,VALID,310.29,VALID,22.0794,VALID,157,VALID,0,
2015-08-18, 08:14:04,VALID,919.341,VALID,0,VALID,83.85,VALID,308.786,VALID,22.1574,VALID,144,VALID,0,
2015-08-18, 08:15:04,VALID,919.366,VALID,0,VALID,84.132,VALID,303.736,VALID,22.1167,VALID,156,VALID,0,
2015-08-18, 08:16:04,VALID,919.338,VALID,0,VALID,84.0863,VALID,312.869,VALID,22.0972,VALID,160,VALID,0,
2015-08-18, 08:17:04,VALID,919.327,VALID,0,VALID,84.2006,VALID,315.662,VALID,22.1184,VALID,171,VALID,0.2,
2015-08-18, 08:18:04,VALID,919.338,VALID,0,VALID,85.3975,VALID,318.456,VALID,22.1167,VALID,149,VALID,1.48594,
2015-08-18, 08:19:04,VALID,919.349,VALID,0,VALID,84.8029,VALID,320.39,VALID,22.1201,VALID,158,VALID,0.265625,
2015-08-18, 08:20:04,VALID,919.339,VALID,0,VALID,84.9096,VALID,320.712,VALID,22.1184,VALID,143,VALID,0,
2015-08-18, 08:21:04,VALID,919.334,VALID,0,VALID,84.8258,VALID,327.051,VALID,22.0989,VALID,136,VALID,0.703125,
2015-08-18, 08:22:04,VALID,919.333,VALID,0,VALID,85.1612,VALID,330.704,VALID,22.0989,VALID,139,VALID,0,
2015-08-18, 08:23:04,VALID,919.32,VALID,0,VALID,84.8105,VALID,334.894,VALID,22.1574,VALID,171,VALID,0.0195313,
2015-08-18, 08:24:04,VALID,919.312,VALID,0,VALID,84.9935,VALID,337.473,VALID,22.1769,VALID,156,VALID,0,
2015-08-18, 08:25:04,VALID,919.33,VALID,0,VALID,84.7571,VALID,340.588,VALID,22.1769,VALID,156,VALID,0,
2015-08-18, 08:26:04,VALID,919.336,VALID,0,VALID,85.367,VALID,344.241,VALID,22.2159,VALID,171,VALID,1.14609,
2015-08-18, 08:27:04,VALID,919.329,VALID,0,VALID,85.3289,VALID,346.175,VALID,22.2533,VALID,170,VALID,0,
2015-08-18, 08:28:04,VALID,919.312,VALID,0,VALID,84.902,VALID,347.465,VALID,22.372,VALID,159,VALID,0,
2015-08-18, 08:29:04,VALID,919.308,VALID,0,VALID,83.7966,VALID,352.944,VALID,22.3525,VALID,160,VALID,1.20664,
2015-08-18, 08:30:04,VALID,919.302,VALID,0,VALID,84.3607,VALID,357.672,VALID,22.3916,VALID,172,VALID,0,
2015-08-18, 08:31:04,VALID,919.241,VALID,0,VALID,84.6504,VALID,360.25,VALID,22.5086,VALID,165,VALID,0.0183594,
2015-08-18, 08:32:04,VALID,919.257,VALID,0,VALID,82.8589,VALID,362.506,VALID,22.585,VALID,179,VALID,0,
2015-08-18, 08:33:04,VALID,919.233,VALID,0,VALID,82.3634,VALID,365.837,VALID,22.6062,VALID,153,VALID,0.408203,
2015-08-18, 08:34:04,VALID,919.235,VALID,0,VALID,81.9822,VALID,368.953,VALID,22.6452,VALID,187,VALID,0,
2015-08-18, 08:35:04,VALID,919.246,VALID,0,VALID,81.2122,VALID,372.176,VALID,22.7623,VALID,122,VALID,0,
2015-08-18, 08:36:04,VALID,919.233,VALID,0,VALID,81.1818,VALID,375.614,VALID,22.8404,VALID,155,VALID,0,
2015-08-18, 08:37:04,VALID,919.229,VALID,0,VALID,79.8324,VALID,379.912,VALID,22.8777,VALID,162,VALID,0,
2015-08-18, 08:38:04,VALID,919.231,VALID,0,VALID,78.7956,VALID,383.457,VALID,22.9345,VALID,167,VALID,0,
2015-08-18, 08:39:04,VALID,919.237,VALID,0,VALID,80.6481,VALID,385.929,VALID,23.0941,VALID,158,VALID,0,
2015-08-18, 08:40:04,VALID,919.236,VALID,0,VALID,78.7041,VALID,390.226,VALID,22.9948,VALID,153,VALID,0.292188,
2015-08-18, 08:41:04,VALID,919.25,VALID,0,VALID,80.2822,VALID,392.912,VALID,23.0338,VALID,170,VALID,0.835547,
2015-08-18, 08:42:04,VALID,919.24,VALID,0,VALID,80.084,VALID,396.78,VALID,23.0693,VALID,159,VALID,0.0109375,
2015-08-18, 08:43:04,VALID,919.214,VALID,0,VALID,78.8337,VALID,400.218,VALID,23.1722,VALID,174,VALID,0,
2015-08-18, 08:44:04,VALID,919.219,VALID,0,VALID,79.436,VALID,403.012,VALID,23.3638,VALID,176,VALID,0,
2015-08-18, 08:45:04,VALID,919.234,VALID,0,VALID,77.431,VALID,406.772,VALID,23.4419,VALID,192,VALID,0,
2015-08-18, 08:46:04,VALID,919.219,VALID,0,VALID,77.7665,VALID,409.888,VALID,23.5803,VALID,166,VALID,0,
2015-08-18, 08:47:04,VALID,919.214,VALID,0,VALID,77.492,VALID,412.789,VALID,23.6566,VALID,167,VALID,0,
2015-08-18, 08:48:04,VALID,919.222,VALID,0,VALID,76.3638,VALID,416.334,VALID,23.5998,VALID,152,VALID,0,
2015-08-18, 08:49:04,VALID,919.209,VALID,0,VALID,76.8669,VALID,421.384,VALID,23.6566,VALID,164,VALID,0,
2015-08-18, 08:50:04,VALID,919.24,VALID,0,VALID,78.2239,VALID,422.888,VALID,23.6602,VALID,146,VALID,0,
2015-08-18, 08:51:04,VALID,919.201,VALID,0,VALID,76.8821,VALID,426.541,VALID,23.6938,VALID,134,VALID,0,
2015-08-18, 08:52:04,VALID,919.193,VALID,0,VALID,74.9382,VALID,430.087,VALID,23.9725,VALID,159,VALID,0,
2015-08-18, 08:53:04,VALID,919.184,VALID,0,VALID,74.9992,VALID,431.269,VALID,24.1464,VALID,160,VALID,0,
2015-08-18, 08:54:04,VALID,919.183,VALID,0,VALID,75.205,VALID,434.492,VALID,24.1464,VALID,162,VALID,0,
2015-08-18, 08:55:04,VALID,919.167,VALID,0,VALID,73.7184,VALID,438.145,VALID,24.1269,VALID,145,VALID,0,
2015-08-18, 08:56:04,VALID,919.157,VALID,0,VALID,75.5709,VALID,444.054,VALID,24.125,VALID,138,VALID,0,
2015-08-18, 08:57:04,VALID,919.156,VALID,0,VALID,75.2507,VALID,447.492,VALID,24.2049,VALID,172,VALID,0,
2015-08-18, 08:58:04,VALID,919.197,VALID,0,VALID,75.3727,VALID,454.154,VALID,24.2049,VALID,159,VALID,0,
2015-08-18, 08:59:04,VALID,919.175,VALID,0,VALID,71.1493,VALID,454.476,VALID,24.2049,VALID,122,VALID,0,
2015-08-18, 09:00:04,VALID,919.197,VALID,0,VALID,74.0844,VALID,457.27,VALID,24.086,VALID,80,VALID,1.10117,
2015-08-18, 09:01:04,VALID,919.206,VALID,0,VALID,75.3422,VALID,461.137,VALID,23.9707,VALID,101,VALID,0.169141,
2015-08-18, 09:02:04,VALID,919.2,VALID,0,VALID,74.6485,VALID,465.328,VALID,23.9121,VALID,152,VALID,0.885547,
2015-08-18, 09:03:04,VALID,919.21,VALID,0,VALID,74.5799,VALID,465.328,VALID,23.9298,VALID,144,VALID,0.796875,
2015-08-18, 09:04:04,VALID,919.176,VALID,0,VALID,73.4897,VALID,469.625,VALID,23.8127,VALID,132,VALID,0.539453,
2015-08-18, 09:05:04,VALID,919.196,VALID,0,VALID,76.1122,VALID,471.344,VALID,23.8713,VALID,121,VALID,0,
2015-08-18, 09:06:04,VALID,919.22,VALID,0,VALID,73.9014,VALID,475.105,VALID,23.992,VALID,137,VALID,2.02422,
2015-08-18, 09:07:04,VALID,919.211,VALID,0,VALID,74.2597,VALID,472.741,VALID,23.9493,VALID,141,VALID,1.09648,
2015-08-18, 09:08:04,VALID,919.234,VALID,0,VALID,75.9597,VALID,473.278,VALID,23.9316,VALID,132,VALID,1.72383,
2015-08-18, 09:09:04,VALID,919.184,VALID,0,VALID,74.3969,VALID,462.749,VALID,23.9121,VALID,135,VALID,0.485156,
2015-08-18, 09:10:04,VALID,919.215,VALID,0,VALID,76.4781,VALID,458.344,VALID,23.9298,VALID,140,VALID,0.278906,
2015-08-18, 09:11:04,VALID,919.192,VALID,0,VALID,75.6014,VALID,469.733,VALID,24.0292,VALID,114,VALID,0.253125,
2015-08-18, 09:12:04,VALID,919.202,VALID,0,VALID,76.7678,VALID,479.94,VALID,24.0683,VALID,113,VALID,0,
2015-08-18, 09:13:04,VALID,919.2,VALID,0,VALID,75.8606,VALID,492.618,VALID,24.1836,VALID,135,VALID,0.773828,
2015-08-18, 09:14:04,VALID,919.172,VALID,0,VALID,75.1059,VALID,490.469,VALID,24.283,VALID,74,VALID,0.465625,
2015-08-18, 09:15:04,VALID,919.189,VALID,0,VALID,74.4884,VALID,486.494,VALID,24.2617,VALID,120,VALID,0.137109,
2015-08-18, 09:16:04,VALID,919.163,VALID,0,VALID,72.9637,VALID,496.056,VALID,24.3221,VALID,164,VALID,0.805859,
2015-08-18, 09:17:04,VALID,919.178,VALID,0,VALID,73.322,VALID,512.924,VALID,24.4216,VALID,176,VALID,0.262891,
2015-08-18, 09:18:04,VALID,919.223,VALID,0,VALID,73.3525,VALID,516.47,VALID,24.3044,VALID,130,VALID,1.66797,
2015-08-18, 09:19:04,VALID,919.213,VALID,0,VALID,72.735,VALID,519.156,VALID,24.3026,VALID,130,VALID,0,
2015-08-18, 09:20:04,VALID,919.223,VALID,0,VALID,74.1149,VALID,523.776,VALID,24.4959,VALID,123,VALID,0.961719,
2015-08-18, 09:21:04,VALID,919.224,VALID,0,VALID,72.613,VALID,525.71,VALID,24.4783,VALID,95,VALID,1.2668,
2015-08-18, 09:22:04,VALID,919.201,VALID,0,VALID,74.1149,VALID,527.966,VALID,24.535,VALID,83,VALID,0.207031,
2015-08-18, 09:23:04,VALID,919.172,VALID,0,VALID,74.2597,VALID,528.718,VALID,24.6112,VALID,97,VALID,0.428125,
2015-08-18, 09:24:04,VALID,919.174,VALID,0,VALID,71.5458,VALID,532.693,VALID,24.7497,VALID,139,VALID,0.121875,
2015-08-18, 09:25:04,VALID,919.156,VALID,0,VALID,70.8901,VALID,529.577,VALID,24.7674,VALID,140,VALID,1.02109,
2015-08-18, 09:26:04,VALID,919.142,VALID,0,VALID,70.4709,VALID,492.188,VALID,24.7674,VALID,125,VALID,1.58516,
2015-08-18, 09:27:04,VALID,919.171,VALID,0,VALID,70.5776,VALID,494.014,VALID,24.7497,VALID,165,VALID,0.39375,
2015-08-18, 09:28:04,VALID,919.119,VALID,0,VALID,69.7238,VALID,507.659,VALID,24.6326,VALID,140,VALID,0.0910156,
2015-08-18, 09:29:04,VALID,919.165,VALID,0,VALID,71.3552,VALID,531.941,VALID,24.6912,VALID,145,VALID,0,
2015-08-18, 09:30:04,VALID,919.171,VALID,0,VALID,69.0377,VALID,493.155,VALID,24.7107,VALID,148,VALID,1.84531,
2015-08-18, 09:31:04,VALID,919.181,VALID,0,VALID,71.6677,VALID,507.337,VALID,24.7693,VALID,132,VALID,1.13555,
2015-08-18, 09:32:04,VALID,919.171,VALID,0,VALID,68.9004,VALID,534.197,VALID,24.7088,VALID,111,VALID,1.3043,
2015-08-18, 09:33:04,VALID,919.198,VALID,0,VALID,69.9601,VALID,518.296,VALID,24.6893,VALID,167,VALID,1.76992,
2015-08-18, 09:34:04,VALID,919.193,VALID,0,VALID,68.2906,VALID,570.835,VALID,24.6307,VALID,140,VALID,2.06758,
2015-08-18, 09:35:04,VALID,919.184,VALID,0,VALID,68.7022,VALID,573.413,VALID,24.5526,VALID,113,VALID,2.65703,
2015-08-18, 09:36:04,VALID,919.185,VALID,0,VALID,70.1049,VALID,574.273,VALID,24.5368,VALID,96,VALID,0.116797,
2015-08-18, 09:37:04,VALID,919.181,VALID,0,VALID,69.7619,VALID,574.166,VALID,24.6345,VALID,97,VALID,1.33047,
2015-08-18, 09:38:04,VALID,919.168,VALID,0,VALID,69.2282,VALID,576.852,VALID,24.7321,VALID,99,VALID,0,
2015-08-18, 09:39:04,VALID,919.171,VALID,0,VALID,69.9906,VALID,582.761,VALID,24.8492,VALID,143,VALID,0.88125,
2015-08-18, 09:40:04,VALID,919.153,VALID,0,VALID,68.4811,VALID,585.662,VALID,24.9469,VALID,154,VALID,0.455469,
2015-08-18, 09:41:04,VALID,919.174,VALID,0,VALID,70.3031,VALID,590.604,VALID,24.9859,VALID,123,VALID,1.40156,
2015-08-18, 09:42:04,VALID,919.141,VALID,0,VALID,68.0161,VALID,592.431,VALID,24.9469,VALID,112,VALID,0.169922,
2015-08-18, 09:43:04,VALID,919.165,VALID,0,VALID,69.0377,VALID,596.621,VALID,25.025,VALID,151,VALID,1.92344,
2015-08-18, 09:44:04,VALID,919.169,VALID,0,VALID,66.1179,VALID,598.555,VALID,25.0836,VALID,103,VALID,0.0484375,
2015-08-18, 09:45:04,VALID,919.146,VALID,0,VALID,68.0009,VALID,582.116,VALID,25.1012,VALID,162,VALID,0.792578,
2015-08-18, 09:46:04,VALID,919.122,VALID,0,VALID,69.9372,VALID,601.778,VALID,25.2203,VALID,183,VALID,0.00195313,
2015-08-18, 09:47:04,VALID,919.136,VALID,0,VALID,68.6031,VALID,606.076,VALID,25.357,VALID,101,VALID,0.00195313,
2015-08-18, 09:48:04,VALID,919.131,VALID,0,VALID,65.4699,VALID,607.472,VALID,25.396,VALID,166,VALID,0.932031,
2015-08-18, 09:49:04,VALID,919.117,VALID,0,VALID,63.2972,VALID,613.059,VALID,25.1988,VALID,103,VALID,2.17852,
2015-08-18, 09:50:04,VALID,919.12,VALID,0,VALID,68.0466,VALID,617.894,VALID,25.1598,VALID,81,VALID,0,
2015-08-18, 09:51:04,VALID,919.13,VALID,0,VALID,69.9601,VALID,621.44,VALID,25.3531,VALID,77,VALID,0,
2015-08-18, 09:52:04,VALID,919.134,VALID,0,VALID,68.8013,VALID,624.233,VALID,25.689,VALID,106,VALID,0,
2015-08-18, 09:53:04,VALID,919.145,VALID,0,VALID,67.513,VALID,627.134,VALID,25.8863,VALID,76,VALID,0,
2015-08-18, 09:54:04,VALID,919.141,VALID,0,VALID,68.1228,VALID,636.159,VALID,25.9214,VALID,52,VALID,0.349219,
2015-08-18, 09:55:04,VALID,919.16,VALID,0,VALID,63.5488,VALID,645.184,VALID,25.9995,VALID,39,VALID,1.77969,
2015-08-18, 09:56:04,VALID,919.125,VALID,0,VALID,63.564,VALID,655.498,VALID,26.1558,VALID,87,VALID,0,
2015-08-18, 09:57:04,VALID,919.158,VALID,0,VALID,66.1026,VALID,661.085,VALID,26.2945,VALID,128,VALID,0,
2015-08-18, 09:58:04,VALID,919.166,VALID,0,VALID,63.9833,VALID,666.35,VALID,26.5485,VALID,60,VALID,1.15117,
2015-08-18, 09:59:04,VALID,919.156,VALID,0,VALID,62.573,VALID,669.143,VALID,26.4097,VALID,116,VALID,1.47148,
2015-08-18, 10:00:04,VALID,919.205,VALID,0,VALID,65.1573,VALID,681.392,VALID,26.1948,VALID,101,VALID,0.842188,
2015-08-18, 10:01:04,VALID,919.176,VALID,0,VALID,62.2909,VALID,681.392,VALID,26.0386,VALID,112,VALID,1.18906,
2015-08-18, 10:02:04,VALID,919.188,VALID,0,VALID,65.5156,VALID,666.78,VALID,25.9214,VALID,128,VALID,0.000390625,
2015-08-18, 10:03:04,VALID,919.142,VALID,0,VALID,62.9389,VALID,664.523,VALID,26.0386,VALID,47,VALID,1.84727,
2015-08-18, 10:04:04,VALID,919.175,VALID,0,VALID,64.0824,VALID,672.582,VALID,26.1362,VALID,52,VALID,0.621094,
2015-08-18, 10:05:04,VALID,919.165,VALID,0,VALID,63.5412,VALID,668.714,VALID,26.0776,VALID,89,VALID,1.00117,
2015-08-18, 10:06:04,VALID,919.14,VALID,0,VALID,65.7901,VALID,674.623,VALID,25.98,VALID,50,VALID,0,
2015-08-18, 10:07:04,VALID,919.116,VALID,0,VALID,61.1932,VALID,686.012,VALID,26.0386,VALID,76,VALID,1.63594,
2015-08-18, 10:08:04,VALID,919.108,VALID,0,VALID,66.3618,VALID,718.566,VALID,26.0386,VALID,30,VALID,0.0195313,
2015-08-18, 10:09:04,VALID,919.134,VALID,0,VALID,62.0089,VALID,729.203,VALID,26.1558,VALID,139,VALID,0.623828,
2015-08-18, 10:10:04,VALID,919.14,VALID,0,VALID,66.3466,VALID,736.939,VALID,26.1948,VALID,90,VALID,0.391406,
2015-08-18, 10:11:04,VALID,919.143,VALID,0,VALID,67.3529,VALID,736.939,VALID,26.3726,VALID,92,VALID,0,
2015-08-18, 10:12:04,VALID,919.16,VALID,0,VALID,62.5196,VALID,725.335,VALID,26.4878,VALID,68,VALID,0.999219,
2015-08-18, 10:13:04,VALID,919.148,VALID,0,VALID,62.756,VALID,722.971,VALID,26.4898,VALID,118,VALID,0,
2015-08-18, 10:14:04,VALID,919.117,VALID,0,VALID,63.1752,VALID,753.592,VALID,26.7047,VALID,112,VALID,0,
2015-08-18, 10:15:04,VALID,919.11,VALID,0,VALID,59.5541,VALID,757.782,VALID,26.8004,VALID,40,VALID,0.788672,
2015-08-18, 10:16:04,VALID,919.144,VALID,0,VALID,62.9084,VALID,749.617,VALID,26.7613,VALID,332,VALID,0.084375,
2015-08-18, 10:17:04,VALID,919.093,VALID,0,VALID,60.2555,VALID,764.551,VALID,26.8199,VALID,139,VALID,0,
2015-08-18, 10:18:04,VALID,919.142,VALID,0,VALID,61.1398,VALID,758.749,VALID,26.9176,VALID,142,VALID,0.0183594,
2015-08-18, 10:19:04,VALID,919.143,VALID,0,VALID,60.5223,VALID,765.948,VALID,27.1346,VALID,135,VALID,0,
2015-08-18, 10:20:04,VALID,919.11,VALID,0,VALID,62.5501,VALID,772.18,VALID,27.113,VALID,91,VALID,0.0632813,
2015-08-18, 10:21:04,VALID,919.089,VALID,0,VALID,59.2034,VALID,345.853,VALID,26.9351,VALID,134,VALID,1.07422,
2015-08-18, 10:22:04,VALID,919.051,VALID,0,VALID,61.521,VALID,753.485,VALID,26.6616,VALID,61,VALID,1.48516,
2015-08-18, 10:23:04,VALID,919.033,VALID,0,VALID,65.9273,VALID,741.451,VALID,26.6421,VALID,90,VALID,0.962109,
2015-08-18, 10:24:04,VALID,919.027,VALID,0,VALID,62.2299,VALID,742.311,VALID,26.5444,VALID,111,VALID,2.23008,
2015-08-18, 10:25:04,VALID,919.034,VALID,0,VALID,66.0721,VALID,736.617,VALID,26.4272,VALID,151,VALID,0.142578,
2015-08-18, 10:26:04,VALID,919.044,VALID,0,VALID,59.6304,VALID,722.757,VALID,26.564,VALID,161,VALID,0.55,
2015-08-18, 10:27:04,VALID,919.005,VALID,0,VALID,61.1855,VALID,713.839,VALID,26.2905,VALID,128,VALID,1.3293,
2015-08-18, 10:28:04,VALID,918.979,VALID,0,VALID,63.6479,VALID,719.104,VALID,26.1733,VALID,93,VALID,0.0078125,
2015-08-18, 10:29:04,VALID,918.993,VALID,0,VALID,64.0901,VALID,711.798,VALID,26.3686,VALID,73,VALID,0,
2015-08-18, 10:30:04,VALID,919.018,VALID,0,VALID,63.5945,VALID,691.814,VALID,26.4858,VALID,153,VALID,0.186523,
